Weather History for Toccoa Rg Letourneau Field, T, GA

Change the Weather History Date:

Monday, March 24, 2014

  Actual Average Record
Temperature  
Mean Temperature 46 °F -  
Max Temperature 59 °F 66 °F 59 °F (2014)
Min Temperature 32 °F 40 °F 32 °F (2014)
Degree Days  
Heating Degree Days 20    
Moisture  
Dew Point 30 °F    
Average Humidity 51    
Maximum Humidity 89    
Minimum Humidity 30    
Precipitation  
Precipitation 0.00 in - - ()
Sea Level Pressure  
Sea Level Pressure 30.12 in    
Wind  
Wind Speed 3 mph (East)    
Max Wind Speed 9 mph    
Max Gust Speed -    
Visibility 10 miles    
Events      
Averages and records for this station are not official NWS values.
T = Trace of Precipitation, MM = Missing Value Source: NWS Daily Summary

Daily Weather History Graph

Daily Weather History Graph

Search for Another Location

Airport:

Trip Planner

Search our weather history database for the weather conditions in past years. The results will help you decide how hot, cold, wet, or windy it might be!

Date:

Astronomy

Mar. 24, 2014 Rise Set
Actual Time 7:31 AM EDT 7:48 PM EDT
Civil Twilight 7:06 AM EDT 8:13 PM EDT
Nautical Twilight 6:36 AM EDT 8:42 PM EDT
Astronomical Twilight 6:06 AM EDT 9:12 PM EDT
Moon 2:46 AM EDT (3/24) 1:25 PM EDT (3/24)
Length of Visible Light 13h 07m
Length of Day
12h 16m
Last Quarter, 43% of the Moon is Illuminated
Mar 24
Last Quarter
Mar 30
New
Apr 7
First Quarter
Apr 15
Full
Apr 22
Last Quarter

Hourly Weather History & Observations

Time (EDT) Temp. Windchill Dew Point Humidity Pressure Visibility Wind Dir Wind Speed Gust Speed Precip Events Conditions
12:15 AM 49.3 °F - 30.0 °F 48% 30.14 in 10.0 mi North 6.9 mph - N/A   Clear
12:35 AM 48.7 °F - 29.8 °F 48% 30.14 in 10.0 mi North 5.8 mph - N/A   Clear
12:55 AM 48.2 °F - 28.9 °F 47% 30.14 in 10.0 mi North 3.5 mph - N/A   Clear
1:15 AM 47.7 °F - 28.2 °F 47% 30.14 in 10.0 mi North 5.8 mph - N/A   Clear
1:35 AM 47.7 °F - 28.0 °F 47% 30.14 in 10.0 mi North 4.6 mph - N/A   Clear
1:55 AM 46.8 °F - 28.0 °F 48% 30.14 in 10.0 mi North 4.6 mph - N/A   Clear
2:15 AM 46.0 °F 43.9 °F 28.4 °F 50% 30.14 in 10.0 mi North 4.6 mph - N/A   Clear
2:35 AM 45.5 °F 44.2 °F 28.2 °F 51% 30.14 in 10.0 mi NNW 3.5 mph - N/A   Clear
2:55 AM 44.4 °F 42.9 °F 28.8 °F 54% 30.14 in 10.0 mi NNE 3.5 mph - N/A   Clear
3:15 AM 44.6 °F 43.1 °F 28.4 °F 53% 30.14 in 10.0 mi North 3.5 mph - N/A   Clear
3:35 AM 43.9 °F - 28.4 °F 55% 30.14 in 10.0 mi Calm Calm - N/A   Clear
3:55 AM 42.4 °F - 28.4 °F 58% 30.15 in 10.0 mi Calm Calm - N/A   Clear
4:15 AM 40.1 °F - 29.3 °F 65% 30.16 in 10.0 mi Calm Calm - N/A   Clear
4:35 AM 39.4 °F 37.2 °F 29.3 °F 67% 30.16 in 10.0 mi East 3.5 mph - N/A   Clear
4:55 AM 37.9 °F 35.5 °F 29.3 °F 71% 30.16 in 10.0 mi East 3.5 mph - N/A   Clear
5:15 AM 37.6 °F - 29.5 °F 73% 30.16 in 10.0 mi Calm Calm - N/A   Clear
5:35 AM 37.6 °F - 29.5 °F 73% 30.17 in 10.0 mi Calm Calm - N/A   Clear
5:55 AM 37.2 °F - 29.5 °F 74% 30.18 in 10.0 mi Calm Calm - N/A   Clear
6:15 AM 36.3 °F 33.7 °F 29.7 °F 77% 30.18 in 10.0 mi North 3.5 mph - N/A   Clear
6:35 AM 35.8 °F - 29.7 °F 78% 30.19 in 10.0 mi Calm Calm - N/A   Clear
6:55 AM 36.5 °F 32.7 °F 29.5 °F 76% 30.19 in 10.0 mi North 4.6 mph - N/A   Clear
7:15 AM 36.3 °F 32.5 °F 28.9 °F 75% 30.19 in 10.0 mi NNW 4.6 mph - N/A   Clear
7:35 AM 32.0 °F 28.7 °F 29.1 °F 89% 30.20 in 10.0 mi East 3.5 mph - N/A   Clear
7:55 AM 34.3 °F - 28.9 °F 81% 30.21 in 10.0 mi Calm Calm - N/A   Clear
8:15 AM 36.3 °F - 30.2 °F 78% 30.21 in 10.0 mi Calm Calm - N/A   Clear
8:35 AM 38.3 °F - 31.3 °F 76% 30.23 in 10.0 mi Calm Calm - N/A   Clear
8:55 AM 39.6 °F - 31.1 °F 72% 30.23 in 10.0 mi Calm Calm - N/A   Clear
9:15 AM 42.8 °F - 31.1 °F 63% 30.24 in 10.0 mi Calm Calm - N/A   Clear
9:35 AM 43.7 °F 41.1 °F 30.0 °F 59% 30.24 in 10.0 mi East 4.6 mph - N/A   Clear
9:55 AM 45.1 °F 42.8 °F 29.1 °F 54% 30.24 in 10.0 mi East 4.6 mph - N/A   Clear
10:15 AM 46.8 °F - 28.0 °F 48% 30.24 in 10.0 mi East 5.8 mph - N/A   Clear
10:35 AM 47.3 °F - 27.9 °F 47% 30.24 in 10.0 mi ENE 6.9 mph - N/A   Clear
10:55 AM 48.9 °F - 27.3 °F 43% 30.24 in 10.0 mi East 3.5 mph - N/A   Clear
11:15 AM 49.5 °F - 27.1 °F 42% 30.23 in 10.0 mi Calm Calm - N/A   Clear
11:35 AM 50.9 °F - 28.2 °F 42% 30.23 in 10.0 mi SE 4.6 mph - N/A   Clear
11:55 AM 51.4 °F - 30.0 °F 44% 30.22 in 10.0 mi SW 4.6 mph - N/A   Clear
12:15 PM 51.3 °F - 29.8 °F 44% 30.21 in 10.0 mi Calm Calm - N/A   Clear
12:35 PM 52.7 °F - 30.4 °F 42% 30.20 in 10.0 mi South 4.6 mph - N/A   Clear
12:55 PM 55.0 °F - 30.0 °F 38% 30.18 in 10.0 mi SSE 8.1 mph - N/A   Clear
1:15 PM 53.6 °F - 28.8 °F 39% 30.17 in 10.0 mi South 5.8 mph - N/A   Clear
1:35 PM 53.6 °F - 27.1 °F 36% 30.16 in 10.0 mi Calm Calm - N/A   Clear
2:15 PM 56.7 °F - 28.9 °F 35% 30.13 in 10.0 mi SSE 4.6 mph - N/A   Clear
2:35 PM 55.4 °F - 27.9 °F 35% 30.12 in 10.0 mi Calm Calm - N/A   Clear
2:55 PM 56.5 °F - 28.2 °F 34% 30.11 in 10.0 mi Calm Calm - N/A   Clear
3:15 PM 57.2 °F - 27.5 °F 32% 30.10 in 10.0 mi Calm Calm - N/A   Clear
3:35 PM 57.7 °F - 27.9 °F 32% 30.09 in 10.0 mi Calm Calm - N/A   Clear
3:55 PM 58.1 °F - 29.1 °F 33% 30.08 in 10.0 mi West 3.5 mph - N/A   Clear
4:15 PM 57.2 °F - 28.9 °F 34% 30.07 in 10.0 mi South 4.6 mph - N/A   Clear
4:35 PM 57.9 °F - 28.9 °F 33% 30.07 in 10.0 mi South 9.2 mph - N/A   Clear
4:55 PM 59.0 °F - 28.9 °F 32% 30.05 in 10.0 mi SSW 5.8 mph - N/A   Clear
5:15 PM 58.6 °F - 27.5 °F 30% 30.04 in 10.0 mi SE 3.5 mph - N/A   Clear
5:35 PM 59.5 °F - 28.6 °F 31% 30.03 in 10.0 mi South 3.5 mph - N/A   Clear
5:55 PM 58.8 °F - 28.2 °F 31% 30.02 in 10.0 mi SSW 4.6 mph - N/A   Clear
6:15 PM 58.8 °F - 29.3 °F 33% 30.02 in 10.0 mi South 4.6 mph - N/A   Clear
6:35 PM 57.9 °F - 28.8 °F 33% 30.02 in 10.0 mi SSE 5.8 mph - N/A   Clear
6:55 PM 56.5 °F - 28.6 °F 34% 30.02 in 10.0 mi South 4.6 mph - N/A   Clear
7:15 PM 56.3 °F - 28.9 °F 35% 30.02 in 10.0 mi Calm Calm - N/A   Scattered Clouds
7:35 PM 55.4 °F - 29.5 °F 37% 30.02 in 10.0 mi SSE 3.5 mph - N/A   Scattered Clouds
7:55 PM 54.0 °F - 30.0 °F 40% 30.02 in 10.0 mi Calm Calm - N/A   Mostly Cloudy
8:15 PM 52.3 °F - 30.9 °F 44% 30.02 in 10.0 mi Calm Calm - N/A   Mostly Cloudy
8:35 PM 51.8 °F - 31.6 °F 46% 30.01 in 10.0 mi Calm Calm - N/A   Mostly Cloudy
8:55 PM 51.8 °F - 32.0 °F 47% 30.02 in 10.0 mi Calm Calm - N/A   Mostly Cloudy
9:15 PM 50.4 °F - 32.9 °F 51% 30.02 in 10.0 mi Calm Calm - N/A   Mostly Cloudy
9:35 PM 50.9 °F - 32.0 °F 48% 30.02 in 10.0 mi SE 3.5 mph - N/A   Mostly Cloudy
9:55 PM 50.9 °F - 32.0 °F 48% 30.02 in 10.0 mi Calm Calm - N/A   Mostly Cloudy
10:15 PM 50.9 °F - 32.2 °F 49% 30.02 in 10.0 mi Calm Calm - N/A   Scattered Clouds
10:35 PM 50.0 °F - 33.8 °F 54% 30.02 in 10.0 mi North 3.5 mph - N/A   Mostly Cloudy
10:55 PM 49.3 °F - 34.0 °F 56% 30.02 in 10.0 mi Calm Calm - N/A   Scattered Clouds
11:15 PM 48.4 °F - 34.5 °F 59% 30.02 in 10.0 mi North 3.5 mph - N/A   Scattered Clouds
11:35 PM 48.2 °F - 33.6 °F 57% 30.02 in 10.0 mi North 3.5 mph - N/A   Scattered Clouds
11:55 PM 48.2 °F - 33.8 °F 58% 30.01 in 10.0 mi NNE 3.5 mph - N/A   Mostly Cloudy